Time,TemperatureF,DewpointF,PressureIn,WindDirection,WindDirectionDegrees,WindSpeedMPH,WindSpeedGustMPH,Humidity,HourlyPrecipIn,Conditions,Clouds,dailyrainin,SoftwareType,DateUTC
2013-11-27 00:00:00,46.0,43.2,29.95,ESE,114,0.0,0.0,90,0.00,,,0.00,Wunderground v.1.15,2013-11-27 08:00:00,
2013-11-27 00:05:00,45.9,43.1,29.94,ESE,114,0.0,0.0,90,0.00,,,0.00,Wunderground v.1.15,2013-11-27 08:05:00,
2013-11-27 00:15:00,45.9,43.1,29.94,ESE,114,0.0,0.0,90,0.00,,,0.00,Wunderground v.1.15,2013-11-27 08:15:00,
2013-11-27 00:25:00,46.0,43.2,29.94,ESE,114,0.0,0.0,90,0.00,,,0.00,Wunderground v.1.15,2013-11-27 08:25:00,
2013-11-27 00:35:00,46.0,43.2,29.94,ESE,114,0.0,0.0,90,0.00,,,0.00,Wunderground v.1.15,2013-11-27 08:35:00,
2013-11-27 00:44:00,46.0,43.2,29.94,ESE,114,0.0,0.0,90,0.00,,,0.00,Wunderground v.1.15,2013-11-27 08:44:00,
2013-11-27 00:50:00,46.0,43.2,29.94,ESE,114,0.0,0.0,90,0.00,,,0.00,Wunderground v.1.15,2013-11-27 08:50:00,
2013-11-27 00:59:00,46.0,43.2,29.93,ESE,114,0.0,0.0,90,0.00,,,0.00,Wunderground v.1.15,2013-11-27 08:59:00,
2013-11-27 01:04:00,45.9,43.1,29.93,ESE,114,0.0,0.0,90,0.00,,,0.00,Wunderground v.1.15,2013-11-27 09:04:00,
2013-11-27 01:10:00,45.9,43.1,29.93,ESE,114,0.0,0.0,90,0.00,,,0.00,Wunderground v.1.15,2013-11-27 09:10:00,
2013-11-27 01:20:00,45.9,43.1,29.93,ESE,114,0.0,0.0,90,0.00,,,0.00,Wunderground v.1.15,2013-11-27 09:20:00,
2013-11-27 01:30:00,45.6,42.8,29.94,SE,143,0.0,0.0,90,0.00,,,0.00,Wunderground v.1.15,2013-11-27 09:30:00,
2013-11-27 01:35:00,45.6,42.8,29.94,SE,143,0.0,0.0,90,0.00,,,0.00,Wunderground v.1.15,2013-11-27 09:35:00,
2013-11-27 01:45:00,45.5,42.7,29.93,SE,143,0.0,0.0,90,0.00,,,0.00,Wunderground v.1.15,2013-11-27 09:45:00,
2013-11-27 01:55:00,45.6,43.1,29.93,SE,143,0.0,0.0,91,0.00,,,0.00,Wunderground v.1.15,2013-11-27 09:55:00,
2013-11-27 02:05:00,45.8,43.3,29.93,SE,143,0.0,0.0,91,0.00,,,0.00,Wunderground v.1.15,2013-11-27 10:05:00,
2013-11-27 02:15:00,45.9,43.1,29.93,SE,143,0.0,0.0,90,0.00,,,0.00,Wunderground v.1.15,2013-11-27 10:15:00,
2013-11-27 02:20:00,45.8,43.3,29.93,SE,143,0.0,0.0,91,0.00,,,0.00,Wunderground v.1.15,2013-11-27 10:20:00,
2013-11-27 02:29:00,46.0,43.5,29.93,SE,143,0.0,0.0,91,0.00,,,0.00,Wunderground v.1.15,2013-11-27 10:29:00,
2013-11-27 02:34:00,46.0,43.5,29.93,SE,143,0.0,0.0,91,0.00,,,0.00,Wunderground v.1.15,2013-11-27 10:34:00,
2013-11-27 02:45:00,45.5,42.7,29.92,SE,143,0.0,0.0,90,0.00,,,0.00,Wunderground v.1.15,2013-11-27 10:45:00,
2013-11-27 02:50:00,45.4,42.9,29.92,SE,143,0.0,0.0,91,0.00,,,0.00,Wunderground v.1.15,2013-11-27 10:50:00,
2013-11-27 03:00:00,44.9,42.4,29.92,SE,143,0.0,0.0,91,0.00,,,0.00,Wunderground v.1.15,2013-11-27 11:00:00,
2013-11-27 03:10:00,44.5,42.0,29.92,SE,143,0.0,0.0,91,0.00,,,0.00,Wunderground v.1.15,2013-11-27 11:10:00,
2013-11-27 03:20:00,44.0,41.5,29.91,SE,143,0.0,0.0,91,0.00,,,0.00,Wunderground v.1.15,2013-11-27 11:20:00,
2013-11-27 03:30:00,43.6,41.4,29.91,SE,143,0.0,0.0,92,0.00,,,0.00,Wunderground v.1.15,2013-11-27 11:30:00,
2013-11-27 03:40:00,43.3,41.1,29.91,SE,143,0.0,0.0,92,0.00,,,0.00,Wunderground v.1.15,2013-11-27 11:40:00,
2013-11-27 03:50:00,42.9,40.7,29.91,SE,143,0.0,0.0,92,0.00,,,0.00,Wunderground v.1.15,2013-11-27 11:50:00,
2013-11-27 04:00:00,42.6,40.7,29.90,SE,143,0.0,0.0,93,0.00,,,0.00,Wunderground v.1.15,2013-11-27 12:00:00,
2013-11-27 04:05:00,42.6,40.7,29.90,SE,146,0.0,0.0,93,0.00,,,0.00,Wunderground v.1.15,2013-11-27 12:05:00,
2013-11-27 04:15:00,42.2,40.3,29.90,SE,146,0.0,0.0,93,0.00,,,0.00,Wunderground v.1.15,2013-11-27 12:15:00,
2013-11-27 04:25:00,42.4,40.8,29.89,SE,146,0.0,0.0,94,0.00,,,0.00,Wunderground v.1.15,2013-11-27 12:25:00,
2013-11-27 04:35:00,42.5,40.9,29.89,SE,146,0.0,0.0,94,0.00,,,0.00,Wunderground v.1.15,2013-11-27 12:35:00,
2013-11-27 04:45:00,42.4,40.8,29.89,SE,146,0.0,0.0,94,0.00,,,0.00,Wunderground v.1.15,2013-11-27 12:45:00,
2013-11-27 04:50:00,42.4,40.8,29.88,SE,146,0.0,0.0,94,0.00,,,0.00,Wunderground v.1.15,2013-11-27 12:50:00,
2013-11-27 04:59:00,42.3,40.7,29.88,SE,146,0.0,0.0,94,0.00,,,0.00,Wunderground v.1.15,2013-11-27 12:59:00,
2013-11-27 05:04:00,42.1,40.5,29.88,SE,146,0.0,0.0,94,0.00,,,0.00,Wunderground v.1.15,2013-11-27 13:04:00,
2013-11-27 05:15:00,42.1,40.5,29.88,SE,146,0.0,0.0,94,0.00,,,0.00,Wunderground v.1.15,2013-11-27 13:15:00,
2013-11-27 05:20:00,41.9,40.3,29.88,SE,146,0.0,0.0,94,0.00,,,0.00,Wunderground v.1.15,2013-11-27 13:20:00,
2013-11-27 05:30:00,41.7,40.1,29.87,SE,146,0.0,0.0,94,0.00,,,0.00,Wunderground v.1.15,2013-11-27 13:30:00,
2013-11-27 05:35:00,41.7,40.1,29.88,SE,146,0.0,0.0,94,0.00,,,0.00,Wunderground v.1.15,2013-11-27 13:35:00,
2013-11-27 05:44:00,41.6,40.0,29.88,SE,146,0.0,0.0,94,0.00,,,0.00,Wunderground v.1.15,2013-11-27 13:44:00,
2013-11-27 05:49:00,41.5,39.9,29.87,SE,146,0.0,0.0,94,0.00,,,0.00,Wunderground v.1.15,2013-11-27 13:49:00,
2013-11-27 06:00:00,41.5,39.9,29.87,SE,146,0.0,0.0,94,0.00,,,0.00,Wunderground v.1.15,2013-11-27 14:00:00,
2013-11-27 06:05:00,41.4,39.8,29.87,SE,146,0.0,0.0,94,0.00,,,0.00,Wunderground v.1.15,2013-11-27 14:05:00,
2013-11-27 06:15:00,41.3,40.0,29.87,SE,146,0.0,0.0,95,0.00,,,0.00,Wunderground v.1.15,2013-11-27 14:15:00,
2013-11-27 06:20:00,41.3,39.7,29.87,SE,146,0.0,0.0,94,0.00,,,0.00,Wunderground v.1.15,2013-11-27 14:20:00,
2013-11-27 06:29:00,41.0,39.4,29.88,SSE,147,0.0,0.0,94,0.00,,,0.00,Wunderground v.1.15,2013-11-27 14:29:00,
2013-11-27 06:35:00,40.8,39.2,29.87,SE,146,0.0,0.0,94,0.00,,,0.00,Wunderground v.1.15,2013-11-27 14:35:00,
2013-11-27 06:45:00,40.5,38.9,29.87,SE,146,0.0,0.0,94,0.00,,,0.00,Wunderground v.1.15,2013-11-27 14:45:00,
2013-11-27 06:50:00,40.2,38.6,29.87,SE,146,0.0,0.0,94,0.00,,,0.00,Wunderground v.1.15,2013-11-27 14:50:00,
2013-11-27 07:00:00,39.9,38.3,29.87,SE,146,0.0,0.0,94,0.00,,,0.00,Wunderground v.1.15,2013-11-27 15:00:00,
2013-11-27 07:05:00,39.7,38.1,29.87,SE,146,0.0,0.0,94,0.00,,,0.00,Wunderground v.1.15,2013-11-27 15:05:00,
2013-11-27 07:15:00,39.7,38.4,29.87,SE,146,0.0,0.0,95,0.00,,,0.00,Wunderground v.1.15,2013-11-27 15:15:00,
2013-11-27 07:20:00,39.6,38.3,29.88,SE,146,0.0,0.0,95,0.00,,,0.00,Wunderground v.1.15,2013-11-27 15:20:00,
2013-11-27 07:30:00,39.7,38.4,29.87,SE,146,0.0,0.0,95,0.00,,,0.00,Wunderground v.1.15,2013-11-27 15:30:00,
2013-11-27 07:40:00,39.7,38.4,29.87,SSE,148,0.0,0.0,95,0.00,,,0.00,Wunderground v.1.15,2013-11-27 15:40:00,
2013-11-27 07:50:00,39.9,38.6,29.88,SSE,147,0.0,0.0,95,0.00,,,0.00,Wunderground v.1.15,2013-11-27 15:50:00,
2013-11-27 08:00:00,41.2,40.1,29.87,SSE,147,0.0,0.0,96,0.00,,,0.00,Wunderground v.1.15,2013-11-27 16:00:00,
2013-11-27 08:05:00,42.4,41.3,29.87,SSE,148,0.0,0.0,96,0.00,,,0.00,Wunderground v.1.15,2013-11-27 16:05:00,
2013-11-27 08:14:00,44.3,43.2,29.86,SE,141,0.0,0.0,96,0.00,,,0.00,Wunderground v.1.15,2013-11-27 16:14:00,
2013-11-27 08:19:00,45.7,44.6,29.86,NE,45,0.0,2.0,96,0.00,,,0.00,Wunderground v.1.15,2013-11-27 16:19:00,
2013-11-27 08:25:00,47.3,46.2,29.86,East,97,1.0,2.0,96,0.00,,,0.00,Wunderground v.1.15,2013-11-27 16:25:00,
2013-11-27 08:35:00,49.3,46.5,29.87,NNE,20,0.0,1.0,90,0.00,,,0.00,Wunderground v.1.15,2013-11-27 16:35:00,
2013-11-27 08:45:00,49.9,46.2,29.87,NNW,333,0.0,0.0,87,0.00,,,0.00,Wunderground v.1.15,2013-11-27 16:45:00,
2013-11-27 08:50:00,50.1,46.1,29.87,NNW,330,0.0,0.0,86,0.00,,,0.00,Wunderground v.1.15,2013-11-27 16:50:00,
2013-11-27 08:59:00,50.9,46.6,29.87,WNW,301,1.0,1.0,85,0.00,,,0.00,Wunderground v.1.15,2013-11-27 16:59:00,
2013-11-27 09:04:00,51.6,46.9,29.87,NNE,30,1.0,1.0,84,0.00,,,0.00,Wunderground v.1.15,2013-11-27 17:04:00,
2013-11-27 09:10:00,52.0,47.0,29.87,ENE,57,2.0,2.0,83,0.00,,,0.00,Wunderground v.1.15,2013-11-27 17:10:00,
2013-11-27 09:20:00,52.7,47.0,29.87,ENE,61,3.0,3.0,81,0.00,,,0.00,Wunderground v.1.15,2013-11-27 17:20:00,
2013-11-27 09:30:00,53.2,46.9,29.87,NNW,345,2.0,2.0,79,0.00,,,0.00,Wunderground v.1.15,2013-11-27 17:30:00,
2013-11-27 09:35:00,53.5,46.8,29.87,North,4,2.0,2.0,78,0.00,,,0.00,Wunderground v.1.15,2013-11-27 17:35:00,
2013-11-27 09:44:00,54.3,47.6,29.87,ENE,65,2.0,6.0,78,0.00,,,0.00,Wunderground v.1.15,2013-11-27 17:44:00,
2013-11-27 09:50:00,54.5,47.4,29.86,North,11,2.0,2.0,77,0.00,,,0.00,Wunderground v.1.15,2013-11-27 17:50:00,
2013-11-27 09:55:00,54.9,47.5,29.86,ENE,65,3.0,3.0,76,0.00,,,0.00,Wunderground v.1.15,2013-11-27 17:55:00,
2013-11-27 10:05:00,54.6,46.8,29.86,East,87,3.0,3.0,75,0.00,,,0.00,Wunderground v.1.15,2013-11-27 18:05:00,
2013-11-27 10:15:00,54.1,46.7,29.86,NNE,23,2.0,3.0,76,0.00,,,0.00,Wunderground v.1.15,2013-11-27 18:15:00,
2013-11-27 10:20:00,54.0,46.6,29.86,North,11,2.0,2.0,76,0.00,,,0.00,Wunderground v.1.15,2013-11-27 18:20:00,
2013-11-27 10:29:00,54.3,47.2,29.86,NE,44,2.0,2.0,77,0.00,,,0.00,Wunderground v.1.15,2013-11-27 18:29:00,
2013-11-27 10:34:00,54.6,47.2,29.86,NE,52,2.0,2.0,76,0.00,,,0.00,Wunderground v.1.15,2013-11-27 18:34:00,
2013-11-27 10:45:00,54.5,47.1,29.85,NNE,25,2.0,3.0,76,0.00,,,0.00,Wunderground v.1.15,2013-11-27 18:45:00,
2013-11-27 10:55:00,54.6,47.2,29.85,NE,37,3.0,6.0,76,0.00,,,0.00,Wunderground v.1.15,2013-11-27 18:55:00,
2013-11-27 11:05:00,54.7,47.3,29.84,NNW,347,3.0,4.0,76,0.00,,,0.00,Wunderground v.1.15,2013-11-27 19:05:00,
2013-11-27 11:14:00,54.9,47.5,29.84,NNE,30,3.0,3.0,76,0.00,,,0.00,Wunderground v.1.15,2013-11-27 19:14:00,
2013-11-27 11:20:00,55.0,47.2,29.83,NE,52,3.0,4.0,75,0.00,,,0.00,Wunderground v.1.15,2013-11-27 19:20:00,
2013-11-27 11:30:00,56.3,48.1,29.83,ENE,59,2.0,3.0,74,0.00,,,0.00,Wunderground v.1.15,2013-11-27 19:30:00,
2013-11-27 11:35:00,56.5,47.6,29.82,NE,56,2.0,5.0,72,0.00,,,0.00,Wunderground v.1.15,2013-11-27 19:35:00,
2013-11-27 11:45:00,56.5,47.6,29.82,NE,52,4.0,4.0,72,0.00,,,0.00,Wunderground v.1.15,2013-11-27 19:45:00,
2013-11-27 11:50:00,56.5,47.6,29.82,ENE,58,3.0,3.0,72,0.00,,,0.00,Wunderground v.1.15,2013-11-27 19:50:00,
2013-11-27 11:59:00,56.3,47.4,29.81,NNE,15,3.0,4.0,72,0.00,,,0.00,Wunderground v.1.15,2013-11-27 19:59:00,
2013-11-27 12:04:00,56.1,47.2,29.81,North,11,4.0,4.0,72,0.00,,,0.00,Wunderground v.1.15,2013-11-27 20:04:00,
2013-11-27 12:15:00,56.8,47.5,29.81,NE,38,3.0,5.0,71,0.00,,,0.00,Wunderground v.1.15,2013-11-27 20:15:00,
2013-11-27 12:25:00,56.9,47.6,29.81,NE,51,3.0,3.0,71,0.00,,,0.00,Wunderground v.1.15,2013-11-27 20:25:00,
2013-11-27 12:35:00,57.1,47.8,29.80,North,7,3.0,3.0,71,0.00,,,0.00,Wunderground v.1.15,2013-11-27 20:35:00,
2013-11-27 12:44:00,57.4,47.7,29.80,NNW,333,3.0,4.0,70,0.00,,,0.00,Wunderground v.1.15,2013-11-27 20:44:00,
2013-11-27 12:50:00,58.0,47.9,29.79,ENE,66,2.0,5.0,69,0.00,,,0.00,Wunderground v.1.15,2013-11-27 20:50:00,
2013-11-27 13:00:00,58.5,48.0,29.79,NE,53,2.0,2.0,68,0.00,,,0.00,Wunderground v.1.15,2013-11-27 21:00:00,
2013-11-27 13:10:00,58.4,47.5,29.79,ENE,69,3.0,3.0,67,0.00,,,0.00,Wunderground v.1.15,2013-11-27 21:10:00,
2013-11-27 13:20:00,57.9,47.4,29.78,NE,42,3.0,6.0,68,0.00,,,0.00,Wunderground v.1.15,2013-11-27 21:20:00,
2013-11-27 13:29:00,57.7,47.6,29.78,NE,46,3.0,3.0,69,0.00,,,0.00,Wunderground v.1.15,2013-11-27 21:29:00,
2013-11-27 13:35:00,57.6,47.5,29.78,NNW,337,3.0,4.0,69,0.00,,,0.00,Wunderground v.1.15,2013-11-27 21:35:00,
2013-11-27 13:44:00,57.8,47.7,29.78,ENE,73,3.0,5.0,69,0.00,,,0.00,Wunderground v.1.15,2013-11-27 21:44:00,
2013-11-27 13:49:00,58.0,47.9,29.77,NE,55,4.0,4.0,69,0.00,,,0.00,Wunderground v.1.15,2013-11-27 21:49:00,
2013-11-27 14:00:00,58.9,48.0,29.77,NE,34,4.0,5.0,67,0.00,,,0.00,Wunderground v.1.15,2013-11-27 22:00:00,
2013-11-27 14:05:00,58.6,47.7,29.78,North,4,4.0,5.0,67,0.00,,,0.00,Wunderground v.1.15,2013-11-27 22:05:00,
2013-11-27 14:15:00,58.7,47.8,29.77,NE,37,4.0,6.0,67,0.00,,,0.00,Wunderground v.1.15,2013-11-27 22:15:00,
2013-11-27 14:20:00,58.5,47.6,29.77,NW,309,4.0,4.0,67,0.00,,,0.00,Wunderground v.1.15,2013-11-27 22:20:00,
2013-11-27 14:29:00,58.3,47.8,29.77,NE,41,3.0,3.0,68,0.00,,,0.00,Wunderground v.1.15,2013-11-27 22:29:00,
2013-11-27 14:34:00,58.2,47.7,29.77,North,3,3.0,3.0,68,0.00,,,0.00,Wunderground v.1.15,2013-11-27 22:34:00,
2013-11-27 14:45:00,57.9,47.4,29.77,NE,53,3.0,6.0,68,0.00,,,0.00,Wunderground v.1.15,2013-11-27 22:45:00,
2013-11-27 14:55:00,58.0,47.5,29.77,North,352,3.0,5.0,68,0.00,,,0.00,Wunderground v.1.15,2013-11-27 22:55:00,
2013-11-27 15:05:00,57.6,47.5,29.77,ENE,74,3.0,5.0,69,0.00,,,0.00,Wunderground v.1.15,2013-11-27 23:05:00,
2013-11-27 15:14:00,57.5,47.8,29.76,NE,53,2.0,3.0,70,0.00,,,0.00,Wunderground v.1.15,2013-11-27 23:14:00,
2013-11-27 15:20:00,57.7,48.0,29.77,ENE,70,2.0,2.0,70,0.00,,,0.00,Wunderground v.1.15,2013-11-27 23:20:00,
2013-11-27 15:29:00,57.9,47.8,29.77,ENE,70,3.0,4.0,69,0.00,,,0.00,Wunderground v.1.15,2013-11-27 23:29:00,
2013-11-27 15:34:00,57.8,48.1,29.76,ESE,104,3.0,4.0,70,0.00,,,0.00,Wunderground v.1.15,2013-11-27 23:34:00,
2013-11-27 15:40:00,57.7,48.0,29.76,NNE,24,2.0,2.0,70,0.00,,,0.00,Wunderground v.1.15,2013-11-27 23:40:00,
2013-11-27 15:50:00,57.8,47.7,29.77,NNE,15,2.0,2.0,69,0.00,,,0.00,Wunderground v.1.15,2013-11-27 23:50:00,
2013-11-27 16:00:00,57.4,47.7,29.76,NNE,27,2.0,2.0,70,0.00,,,0.00,Wunderground v.1.15,2013-11-28 00:00:00,
2013-11-27 16:09:00,57.2,47.5,29.77,NE,48,2.0,2.0,70,0.00,,,0.00,Wunderground v.1.15,2013-11-28 00:09:00,
2013-11-27 16:15:00,57.2,47.9,29.77,NE,37,2.0,2.0,71,0.00,,,0.00,Wunderground v.1.15,2013-11-28 00:15:00,
2013-11-27 16:25:00,57.1,47.8,29.76,NE,52,1.0,3.0,71,0.00,,,0.00,Wunderground v.1.15,2013-11-28 00:25:00,
2013-11-27 16:35:00,56.7,47.4,29.77,ENE,63,1.0,1.0,71,0.00,,,0.00,Wunderground v.1.15,2013-11-28 00:35:00,
2013-11-27 16:44:00,56.3,47.4,29.77,NE,37,1.0,1.0,72,0.00,,,0.00,Wunderground v.1.15,2013-11-28 00:44:00,
2013-11-27 16:50:00,56.1,47.6,29.77,NE,37,0.0,0.0,73,0.00,,,0.00,Wunderground v.1.15,2013-11-28 00:50:00,
2013-11-27 16:59:00,55.5,47.3,29.77,ENE,68,0.0,0.0,74,0.00,,,0.00,Wunderground v.1.15,2013-11-28 00:59:00,
2013-11-27 17:04:00,55.2,47.1,29.77,ENE,68,0.0,0.0,74,0.00,,,0.00,Wunderground v.1.15,2013-11-28 01:04:00,
2013-11-27 17:10:00,54.9,47.1,29.77,ENE,68,0.0,0.0,75,0.00,,,0.00,Wunderground v.1.15,2013-11-28 01:10:00,
2013-11-27 17:20:00,54.3,46.9,29.77,ENE,68,0.0,0.0,76,0.00,,,0.00,Wunderground v.1.15,2013-11-28 01:20:00,
2013-11-27 17:30:00,53.9,46.9,29.77,ENE,66,0.0,0.0,77,0.00,,,0.00,Wunderground v.1.15,2013-11-28 01:30:00,
2013-11-27 17:35:00,53.6,46.6,29.77,ENE,65,0.0,0.0,77,0.00,,,0.00,Wunderground v.1.15,2013-11-28 01:35:00,
2013-11-27 17:44:00,52.9,46.6,29.77,ENE,65,0.0,0.0,79,0.00,,,0.00,Wunderground v.1.15,2013-11-28 01:44:00,
2013-11-27 17:50:00,52.7,46.7,29.78,ENE,65,0.0,0.0,80,0.00,,,0.00,Wunderground v.1.15,2013-11-28 01:50:00,
2013-11-27 17:59:00,52.3,46.3,29.77,ENE,65,0.0,0.0,80,0.00,,,0.00,Wunderground v.1.15,2013-11-28 01:59:00,
2013-11-27 18:04:00,52.2,46.5,29.77,ENE,66,0.0,0.0,81,0.00,,,0.00,Wunderground v.1.15,2013-11-28 02:04:00,
2013-11-27 18:10:00,52.0,46.3,29.77,ENE,65,0.0,0.0,81,0.00,,,0.00,Wunderground v.1.15,2013-11-28 02:10:00,
2013-11-27 18:20:00,51.7,46.4,29.78,ENE,66,0.0,0.0,82,0.00,,,0.00,Wunderground v.1.15,2013-11-28 02:20:00,
2013-11-27 18:30:00,51.3,46.3,29.77,ENE,66,0.0,0.0,83,0.00,,,0.00,Wunderground v.1.15,2013-11-28 02:30:00,
2013-11-27 18:35:00,51.2,46.2,29.77,ENE,66,0.0,0.0,83,0.00,,,0.00,Wunderground v.1.15,2013-11-28 02:35:00,
2013-11-27 18:44:00,50.6,45.6,29.77,ENE,66,0.0,0.0,83,0.00,,,0.00,Wunderground v.1.15,2013-11-28 02:44:00,
2013-11-27 18:49:00,50.4,45.7,29.77,ENE,66,0.0,0.0,84,0.00,,,0.00,Wunderground v.1.15,2013-11-28 02:49:00,
2013-11-27 19:00:00,50.1,45.8,29.77,ENE,66,0.0,0.0,85,0.00,,,0.00,Wunderground v.1.15,2013-11-28 03:00:00,
2013-11-27 19:05:00,50.0,45.7,29.77,ENE,66,0.0,0.0,85,0.00,,,0.00,Wunderground v.1.15,2013-11-28 03:05:00,
2013-11-27 19:15:00,49.9,45.6,29.77,ENE,66,0.0,0.0,85,0.00,,,0.00,Wunderground v.1.15,2013-11-28 03:15:00,
2013-11-27 19:20:00,49.9,45.9,29.78,ENE,66,0.0,0.0,86,0.00,,,0.00,Wunderground v.1.15,2013-11-28 03:20:00,
2013-11-27 19:29:00,49.6,45.3,29.78,ENE,66,0.0,0.0,85,0.00,,,0.00,Wunderground v.1.15,2013-11-28 03:29:00,
2013-11-27 19:34:00,49.6,45.6,29.78,ENE,66,0.0,0.0,86,0.00,,,0.00,Wunderground v.1.15,2013-11-28 03:34:00,
2013-11-27 19:45:00,49.8,45.8,29.78,ENE,65,0.0,0.0,86,0.00,,,0.00,Wunderground v.1.15,2013-11-28 03:45:00,
2013-11-27 19:50:00,50.1,45.8,29.78,ENE,66,0.0,0.0,85,0.00,,,0.00,Wunderground v.1.15,2013-11-28 03:50:00,
2013-11-27 20:00:00,49.9,45.3,29.78,ENE,66,0.0,0.0,84,0.00,,,0.00,Wunderground v.1.15,2013-11-28 04:00:00,
2013-11-27 20:05:00,49.6,45.0,29.78,ENE,66,0.0,0.0,84,0.00,,,0.00,Wunderground v.1.15,2013-11-28 04:05:00,
2013-11-27 20:14:00,48.9,44.6,29.78,ENE,66,0.0,0.0,85,0.00,,,0.00,Wunderground v.1.15,2013-11-28 04:14:00,
2013-11-27 20:20:00,48.5,44.2,29.78,ENE,66,0.0,0.0,85,0.00,,,0.00,Wunderground v.1.15,2013-11-28 04:20:00,
2013-11-27 20:29:00,47.9,43.9,29.78,ENE,66,0.0,0.0,86,0.00,,,0.00,Wunderground v.1.15,2013-11-28 04:29:00,
2013-11-27 20:34:00,48.1,44.4,29.78,ENE,66,0.0,0.0,87,0.00,,,0.00,Wunderground v.1.15,2013-11-28 04:34:00,
2013-11-27 20:39:00,48.5,44.5,29.78,ENE,66,0.0,0.0,86,0.00,,,0.00,Wunderground v.1.15,2013-11-28 04:39:00,
2013-11-27 20:45:00,48.7,44.4,29.78,ENE,66,0.0,0.0,85,0.00,,,0.00,Wunderground v.1.15,2013-11-28 04:45:00,
2013-11-27 20:54:00,48.9,44.3,29.78,ENE,66,0.0,0.0,84,0.00,,,0.00,Wunderground v.1.15,2013-11-28 04:54:00,
2013-11-27 21:00:00,48.5,43.9,29.79,ENE,66,0.0,0.0,84,0.00,,,0.00,Wunderground v.1.15,2013-11-28 05:00:00,
2013-11-27 21:05:00,48.0,43.4,29.79,ENE,66,0.0,0.0,84,0.00,,,0.00,Wunderground v.1.15,2013-11-28 05:05:00,
2013-11-27 21:10:00,47.6,43.3,29.79,ENE,66,0.0,0.0,85,0.00,,,0.00,Wunderground v.1.15,2013-11-28 05:10:00,
2013-11-27 21:15:00,47.2,42.9,29.79,ENE,66,0.0,0.0,85,0.00,,,0.00,Wunderground v.1.15,2013-11-28 05:15:00,
2013-11-27 21:20:00,47.0,43.0,29.79,ENE,66,0.0,0.0,86,0.00,,,0.00,Wunderground v.1.15,2013-11-28 05:20:00,
2013-11-27 21:29:00,46.7,42.7,29.79,ENE,66,0.0,0.0,86,0.00,,,0.00,Wunderground v.1.15,2013-11-28 05:29:00,
2013-11-27 21:35:00,46.5,42.8,29.78,ENE,66,0.0,0.0,87,0.00,,,0.00,Wunderground v.1.15,2013-11-28 05:35:00,
2013-11-27 21:39:00,46.1,42.4,29.79,ENE,66,0.0,0.0,87,0.00,,,0.00,Wunderground v.1.15,2013-11-28 05:39:00,
2013-11-27 21:49:00,45.9,42.5,29.79,ENE,66,0.0,0.0,88,0.00,,,0.00,Wunderground v.1.15,2013-11-28 05:49:00,
2013-11-27 22:00:00,45.8,42.4,29.79,ENE,66,0.0,0.0,88,0.00,,,0.00,Wunderground v.1.15,2013-11-28 06:00:00,
2013-11-27 22:10:00,45.4,42.1,29.79,ENE,66,0.0,0.0,88,0.00,,,0.00,Wunderground v.1.15,2013-11-28 06:10:00,
2013-11-27 22:20:00,45.3,42.2,29.79,ENE,66,0.0,0.0,89,0.00,,,0.00,Wunderground v.1.15,2013-11-28 06:20:00,
2013-11-27 22:25:00,45.3,42.2,29.79,ENE,66,0.0,0.0,89,0.00,,,0.00,Wunderground v.1.15,2013-11-28 06:25:00,
2013-11-27 22:35:00,46.2,42.5,29.79,ENE,66,0.0,0.0,87,0.00,,,0.00,Wunderground v.1.15,2013-11-28 06:35:00,
2013-11-27 22:44:00,47.3,43.0,29.79,ENE,66,0.0,0.0,85,0.00,,,0.00,Wunderground v.1.15,2013-11-28 06:44:00,
2013-11-27 22:49:00,47.3,42.4,29.79,ENE,66,0.0,0.0,83,0.00,,,0.00,Wunderground v.1.15,2013-11-28 06:49:00,
2013-11-27 22:55:00,47.1,42.5,29.79,ENE,66,0.0,0.0,84,0.00,,,0.00,Wunderground v.1.15,2013-11-28 06:55:00,
2013-11-27 23:04:00,48.0,42.8,29.80,ENE,66,0.0,0.0,82,0.00,,,0.00,Wunderground v.1.15,2013-11-28 07:04:00,
2013-11-27 23:10:00,48.2,42.6,29.80,ENE,66,0.0,0.0,81,0.00,,,0.00,Wunderground v.1.15,2013-11-28 07:10:00,
2013-11-27 23:20:00,47.6,42.1,29.80,ENE,65,0.0,0.0,81,0.00,,,0.00,Wunderground v.1.15,2013-11-28 07:20:00,
2013-11-27 23:29:00,48.5,42.3,29.80,ENE,66,0.0,0.0,79,0.00,,,0.00,Wunderground v.1.15,2013-11-28 07:29:00,
2013-11-27 23:34:00,47.9,42.0,29.80,ENE,66,0.0,0.0,80,0.00,,,0.00,Wunderground v.1.15,2013-11-28 07:34:00,
2013-11-27 23:44:00,47.5,42.0,29.79,ENE,66,0.0,0.0,81,0.00,,,0.00,Wunderground v.1.15,2013-11-28 07:44:00,
2013-11-27 23:49:00,47.4,41.9,29.79,ENE,66,0.0,0.0,81,0.00,,,0.00,Wunderground v.1.15,2013-11-28 07:49:00,
2013-11-27 23:55:00,46.9,41.7,29.79,ENE,66,0.0,0.0,82,0.00,,,0.00,Wunderground v.1.15,2013-11-28 07:55:00,